TimeEST,TemperatureF,Dew PointF,Humidity,Sea Level PressureIn,VisibilityMPH,Wind Direction,Wind SpeedMPH,Gust SpeedMPH,PrecipitationIn,Events,Conditions,WindDirDegrees,DateUTC
12:04 AM,59.0,57.2,94,29.35,3.0,Variable,6.9,-,0.06,Rain,Heavy Rain,0,2013-01-31 05:04:00
12:54 AM,61.0,57.9,90,29.28,6.0,South,13.8,21.9,0.16,Rain,Light Rain,190,2013-01-31 05:54:00
1:54 AM,62.1,57.9,86,29.18,9.0,South,18.4,32.2,0.05,Rain,Light Rain,180,2013-01-31 06:54:00
2:54 AM,62.1,57.9,86,29.12,5.0,South,17.3,34.5,0.06,Rain,Rain,180,2013-01-31 07:54:00
3:20 AM,60.8,59.0,94,29.17,1.8,WSW,25.3,41.4,0.12,Rain,Heavy Rain,240,2013-01-31 08:20:00
3:23 AM,60.8,59.0,94,29.20,1.2,West,31.1,41.4,0.16,Rain,Heavy Rain,260,2013-01-31 08:23:00
3:29 AM,60.8,59.0,94,29.18,1.0,WSW,21.9,40.3,0.37,Rain,Heavy Rain,250,2013-01-31 08:29:00
3:36 AM,60.8,57.2,88,29.18,3.0,WSW,18.4,32.2,0.41,Rain,Heavy Rain,250,2013-01-31 08:36:00
3:47 AM,60.8,57.2,88,29.19,7.0,WSW,13.8,25.3,0.43,Rain,Rain,250,2013-01-31 08:47:00
3:54 AM,60.1,55.9,86,29.18,5.0,WSW,21.9,32.2,0.46,Rain,Heavy Rain,240,2013-01-31 08:54:00
4:54 AM,57.9,55.0,90,29.15,10.0,SSW,11.5,19.6,0.10,Rain,Light Rain,210,2013-01-31 09:54:00
5:47 AM,55.4,51.8,88,29.18,2.5,West,25.3,36.8,0.00,Rain,Rain,280,2013-01-31 10:47:00
5:54 AM,53.1,50.0,89,29.19,2.0,West,16.1,36.8,0.10,Rain,Rain,260,2013-01-31 10:54:00
6:01 AM,53.6,48.2,82,29.20,9.0,West,25.3,33.4,N/A,Rain,Light Rain,270,2013-01-31 11:01:00
6:11 AM,51.8,46.4,82,29.22,10.0,West,27.6,41.4,0.00,Rain,Light Rain,280,2013-01-31 11:11:00
6:54 AM,48.9,32.0,52,29.28,10.0,West,21.9,41.4,0.00,,Mostly Cloudy,280,2013-01-31 11:54:00
7:54 AM,46.0,30.9,56,29.36,10.0,WNW,25.3,36.8,N/A,,Overcast,290,2013-01-31 12:54:00
8:54 AM,43.0,25.0,49,29.44,10.0,West,25.3,40.3,N/A,,Mostly Cloudy,280,2013-01-31 13:54:00
9:54 AM,42.1,25.0,51,29.48,10.0,West,19.6,33.4,N/A,,Mostly Cloudy,280,2013-01-31 14:54:00
10:54 AM,43.0,24.1,47,29.52,10.0,West,31.1,36.8,N/A,,Mostly Cloudy,270,2013-01-31 15:54:00
11:54 AM,42.1,24.1,49,29.53,10.0,West,20.7,31.1,N/A,,Overcast,280,2013-01-31 16:54:00
12:54 PM,45.0,21.9,40,29.53,10.0,West,28.8,38.0,N/A,,Mostly Cloudy,260,2013-01-31 17:54:00
1:54 PM,42.1,19.0,40,29.56,10.0,WNW,23.0,35.7,N/A,,Clear,290,2013-01-31 18:54:00
2:54 PM,43.0,19.9,40,29.60,10.0,West,19.6,33.4,N/A,,Scattered Clouds,270,2013-01-31 19:54:00
3:54 PM,39.9,15.1,36,29.65,10.0,West,31.1,48.3,N/A,,Partly Cloudy,280,2013-01-31 20:54:00
4:54 PM,37.0,12.0,36,29.71,10.0,West,29.9,42.6,N/A,,Partly Cloudy,270,2013-01-31 21:54:00
5:54 PM,35.1,14.0,42,29.74,10.0,West,15.0,32.2,N/A,,Partly Cloudy,280,2013-01-31 22:54:00
6:54 PM,35.1,15.1,44,29.78,10.0,WSW,18.4,27.6,N/A,,Mostly Cloudy,250,2013-01-31 23:54:00
7:54 PM,34.0,14.0,44,29.80,10.0,West,23.0,35.7,0.00,,Mostly Cloudy,280,2013-02-01 00:54:00
8:54 PM,32.0,12.9,45,29.83,10.0,West,19.6,32.2,N/A,,Mostly Cloudy,280,2013-02-01 01:54:00
10:54 PM,30.0,9.0,41,29.86,10.0,West,17.3,26.5,N/A,,Clear,270,2013-02-01 03:54:00
11:54 PM,28.9,9.0,43,29.88,10.0,WSW,10.4,-,N/A,,Clear,240,2013-02-01 04:54:00